Вернуться в каталог

SL-14 DEB

АктивенPO
NORAD 45323·DEBRIS·🇷🇺 Russia

Запущен Aug 15, 1991 с Plesetsk Cosmodrome

Loading…

Ближайшие Пролёты (ближайшие 24 часа)

TLE

СвежийSource: Space-Track

Эпоха: Sep 13, 2026, 11:58 UTC

1 45323U 91056BM  26256.49871845  .00000478  00000-0  11401-2 0  9993
2 45323  82.5271  64.0063 0006677 200.2989 159.7871 13.21032950315057

Отслеживайте SL-14 DEB в реальном времени с AllMySat

Download on the App Store